Weather History for Vinton, IA

Change the Weather History Date:

Wednesday, March 6, 2013

  Actual Average Record
Temperature  
Mean Temperature 17 °F -  
Max Temperature 27 °F 41 °F 73 °F (2005)
Min Temperature 7 °F 22 °F -11 °F (1960)
Degree Days  
Heating Degree Days 48    
Moisture  
Dew Point 14 °F    
Average Humidity 76    
Maximum Humidity 90    
Minimum Humidity 63    
Precipitation  
Precipitation 0.00 in - - ()
Sea Level Pressure  
Sea Level Pressure 30.34 in    
Wind  
Wind Speed 10 mph (NNW)    
Max Wind Speed 20 mph    
Max Gust Speed 26 mph    
Visibility 9 miles    
Events      
Averages and records for this station are not official NWS values.
T = Trace of Precipitation, MM = Missing Value Source: NWS Daily Summary

Daily Weather History Graph

Daily Weather History Graph

Search for Another Location

Airport:

Trip Planner

Search our weather history database for the weather conditions in past years. The results will help you decide how hot, cold, wet, or windy it might be!

Date:

Astronomy

Mar. 06, 2013 Rise Set
Actual Time 6:34 AM CST 6:04 PM CST
Civil Twilight 6:06 AM CST 6:32 PM CST
Nautical Twilight 5:34 AM CST 7:04 PM CST
Astronomical Twilight 5:01 AM CST 7:37 PM CST
Moon 2:48 AM CST (3/6) 12:42 PM CST (3/6)
Length of Visible Light 12h 25m
Length of Day
11h 29m
Waning Crescent, 29% of the Moon is Illuminated
Mar 6
Waning Crescent
Mar 11
New
Mar 19
First Quarter
Mar 27
Full
Apr 2
Last Quarter

Hourly Weather History & Observations

Time (CST) Temp. Windchill Dew Point Humidity Pressure Visibility Wind Dir Wind Speed Gust Speed Precip Events Conditions
12:15 AM 22.6 °F 11.9 °F 16.7 °F 78% 30.22 in 10.0 mi NNW 10.4 mph - N/A   Clear
12:35 AM 22.6 °F 11.9 °F 16.5 °F 77% 30.23 in 10.0 mi NNW 10.4 mph - N/A   Scattered Clouds
12:55 AM 24.8 °F 15.3 °F 18.7 °F 78% 30.24 in 10.0 mi NW 9.2 mph - N/A   Overcast
1:15 AM 25.0 °F 15.5 °F 18.3 °F 76% 30.25 in 10.0 mi NW 9.2 mph - N/A   Mostly Cloudy
1:35 AM 22.6 °F 13.4 °F 16.5 °F 77% 30.25 in 10.0 mi NNW 8.1 mph - N/A   Scattered Clouds
1:55 AM 21.6 °F 11.3 °F 15.6 °F 78% 30.26 in 10.0 mi NW 9.2 mph - N/A   Scattered Clouds
2:15 AM 19.0 °F 10.0 °F 14.0 °F 81% 30.27 in 10.0 mi NW 6.9 mph - N/A   Scattered Clouds
2:35 AM 17.6 °F 12.3 °F 13.3 °F 83% 30.27 in 10.0 mi NW 3.5 mph - N/A   Mostly Cloudy
2:55 AM 19.0 °F 12.3 °F 14.5 °F 83% 30.27 in 10.0 mi North 4.6 mph - N/A   Overcast
3:15 AM 20.5 °F 9.2 °F 16.0 °F 83% 30.28 in 10.0 mi NNW 10.4 mph - N/A   Mostly Cloudy
3:35 AM 21.9 °F 10.4 °F 16.7 °F 80% 30.29 in 10.0 mi NNW 11.5 mph - N/A   Mostly Cloudy
3:55 AM 20.8 °F 10.4 °F 15.8 °F 81% 30.29 in 10.0 mi NNW 9.2 mph - N/A   Scattered Clouds
4:15 AM 20.7 °F 11.0 °F 16.2 °F 83% 30.30 in 10.0 mi NNW 8.1 mph - N/A   Mostly Cloudy
4:35 AM 21.6 °F 15.3 °F 16.7 °F 82% 30.31 in 10.0 mi NNW 4.6 mph - N/A   Overcast
4:55 AM 22.6 °F 14.3 °F 18.0 °F 82% 30.31 in 10.0 mi NNW 6.9 mph - N/A   Overcast
5:15 AM 23.9 °F 13.5 °F 18.3 °F 79% 30.31 in 10.0 mi NNW 10.4 mph - N/A   Overcast
5:35 AM 23.0 °F 11.1 °F 16.9 °F 77% 30.32 in 10.0 mi NW 12.7 mph 17.3 mph N/A   Overcast
5:55 AM 22.6 °F 11.3 °F 16.7 °F 78% 30.32 in 10.0 mi NNW 11.5 mph 18.4 mph N/A   Overcast
6:15 AM 22.6 °F 9.2 °F 16.7 °F 78% 30.33 in 10.0 mi NNW 16.1 mph 20.7 mph N/A   Overcast
6:35 AM 20.8 °F 7.3 °F 14.9 °F 78% 30.33 in 10.0 mi NNW 15.0 mph 21.9 mph N/A   Overcast
6:55 AM 20.8 °F 9.0 °F 14.9 °F 78% 30.34 in 10.0 mi NNW 11.5 mph - N/A   Overcast
7:15 AM 21.4 °F 10.4 °F 15.4 °F 78% 30.35 in 10.0 mi NNW 10.4 mph - N/A   Overcast
7:35 AM 21.6 °F 8.8 °F 14.9 °F 76% 30.35 in 10.0 mi NNW 13.8 mph 19.6 mph N/A   Overcast
7:55 AM 20.3 °F 7.2 °F 13.6 °F 75% 30.35 in 10.0 mi NNW 13.8 mph 20.7 mph N/A   Overcast
8:15 AM 20.3 °F 6.1 °F 13.6 °F 75% 30.36 in 10.0 mi NNW 16.1 mph 21.9 mph N/A   Overcast
8:35 AM 20.3 °F 7.2 °F 13.8 °F 76% 30.36 in 10.0 mi NNW 13.8 mph 18.4 mph N/A   Overcast
8:55 AM 21.2 °F 8.9 °F 14.0 °F 74% 30.37 in 10.0 mi North 12.7 mph 20.7 mph N/A   Overcast
9:15 AM 21.6 °F 6.9 °F 14.0 °F 73% 30.37 in 10.0 mi North 18.4 mph 25.3 mph N/A   Overcast
9:35 AM 22.6 °F 8.3 °F 14.4 °F 71% 30.37 in 10.0 mi North 18.4 mph 26.5 mph N/A   Overcast
9:55 AM 22.6 °F 7.9 °F 14.0 °F 69% 30.37 in 10.0 mi North 19.6 mph 25.3 mph N/A   Overcast
10:15 AM 23.9 °F 9.5 °F 15.1 °F 69% 30.37 in 10.0 mi North 19.6 mph 23.0 mph N/A   Overcast
10:35 AM 24.3 °F 10.4 °F 14.9 °F 68% 30.37 in 10.0 mi North 18.4 mph 23.0 mph N/A   Overcast
10:55 AM 24.4 °F 12.4 °F 15.4 °F 69% 30.38 in 10.0 mi North 13.8 mph 21.9 mph N/A   Overcast
11:15 AM 25.2 °F 12.0 °F 15.8 °F 68% 30.38 in 10.0 mi North 17.3 mph 21.9 mph N/A   Overcast
11:35 AM 25.2 °F 13.3 °F 16.3 °F 69% 30.38 in 10.0 mi North 13.8 mph - N/A   Overcast
11:55 AM 25.2 °F 13.3 °F 15.8 °F 68% 30.38 in 10.0 mi North 13.8 mph 19.6 mph N/A   Overcast
12:15 PM 25.2 °F 12.0 °F 15.6 °F 67% 30.38 in 10.0 mi North 17.3 mph - N/A   Overcast
12:35 PM 26.2 °F 13.8 °F 16.5 °F 67% 30.37 in 10.0 mi North 16.1 mph - N/A   Overcast
12:55 PM 27.5 °F 15.4 °F 17.2 °F 65% 30.37 in 10.0 mi NNW 16.1 mph 20.7 mph N/A   Mostly Cloudy
1:15 PM 27.5 °F 16.3 °F 16.5 °F 63% 30.37 in 10.0 mi NNW 13.8 mph 18.4 mph N/A   Mostly Cloudy
1:35 PM 27.1 °F 16.9 °F 17.4 °F 67% 30.35 in 10.0 mi NNW 11.5 mph 17.3 mph N/A   Overcast
1:55 PM 26.2 °F 14.2 °F 16.9 °F 68% 30.34 in 10.0 mi North 15.0 mph 18.4 mph N/A   Overcast
2:15 PM 26.8 °F 15.4 °F 17.2 °F 67% 30.34 in 10.0 mi North 13.8 mph 18.4 mph N/A   Mostly Cloudy
2:35 PM 25.2 °F 14.4 °F 15.8 °F 68% 30.34 in 10.0 mi North 11.5 mph - N/A   Mostly Cloudy
2:55 PM 27.5 °F 18.6 °F 17.8 °F 67% 30.35 in 10.0 mi North 9.2 mph - N/A   Scattered Clouds
3:15 PM 27.5 °F 18.6 °F 17.4 °F 66% 30.35 in 10.0 mi NNW 9.2 mph - N/A   Scattered Clouds
3:35 PM 27.5 °F 18.0 °F 16.7 °F 64% 30.35 in 10.0 mi North 10.4 mph - N/A   Clear
3:55 PM 27.5 °F 18.0 °F 17.4 °F 66% 30.35 in 10.0 mi North 10.4 mph - N/A   Clear
4:15 PM 27.5 °F 19.3 °F 17.2 °F 65% 30.35 in 10.0 mi North 8.1 mph - N/A   Clear
4:35 PM 25.3 °F 16.7 °F 15.1 °F 65% 30.34 in 10.0 mi North 8.1 mph - N/A   Clear
4:55 PM 25.2 °F 18.3 °F 14.9 °F 65% 30.35 in 10.0 mi North 5.8 mph - N/A   Clear
5:15 PM 23.7 °F 16.6 °F 14.4 °F 67% 30.36 in 10.0 mi North 5.8 mph - N/A   Clear
5:35 PM 22.5 °F 14.1 °F 13.8 °F 69% 30.36 in 10.0 mi WNW 6.9 mph - N/A   Clear
5:55 PM 20.7 °F 15.8 °F 13.6 °F 74% 30.36 in 10.0 mi WNW 3.5 mph - N/A   Clear
6:15 PM 19.6 °F 13.0 °F 13.5 °F 77% 30.36 in 10.0 mi WNW 4.6 mph - N/A   Clear
6:35 PM 18.9 °F 13.7 °F 13.3 °F 79% 30.36 in 10.0 mi NW 3.5 mph - N/A   Clear
6:55 PM 17.6 °F 10.7 °F 13.1 °F 83% 30.36 in 10.0 mi WNW 4.6 mph - N/A   Clear
7:15 PM 15.4 °F 8.1 °F 11.3 °F 84% 30.35 in 10.0 mi NW 4.6 mph - N/A   Clear
7:35 PM 15.4 °F 9.8 °F 11.3 °F 84% 30.36 in 10.0 mi West 3.5 mph - N/A   Clear
7:55 PM 14.9 °F 7.5 °F 10.8 °F 84% 30.36 in 10.0 mi NW 4.6 mph - N/A   Clear
8:35 PM 12.7 °F 6.7 °F 9.7 °F 88% 30.35 in 10.0 mi North 3.5 mph - N/A   Clear
8:55 PM 12.7 °F - 10.2 °F 90% 30.34 in 7.0 mi Calm Calm - N/A   Clear
9:15 PM 11.7 °F - 9.0 °F 89% 30.35 in 5.0 mi Calm Calm - N/A   Clear
9:35 PM 12.7 °F 6.7 °F 10.2 °F 90% 30.35 in 7.0 mi WNW 3.5 mph - N/A   Clear
9:55 PM 10.2 °F 2.0 °F 7.3 °F 88% 30.35 in 7.0 mi NW 4.6 mph - N/A   Clear
10:15 PM 10.2 °F 3.8 °F 7.3 °F 88% 30.36 in 5.0 mi West 3.5 mph - N/A   Clear
10:35 PM 9.5 °F 3.0 °F 6.4 °F 87% 30.36 in 5.0 mi NW 3.5 mph - N/A   Clear
10:55 PM 9.0 °F - 5.9 °F 87% 30.35 in 3.0 mi Calm Calm - N/A   Clear
11:15 PM 9.0 °F - 5.9 °F 87% 30.35 in 2.5 mi Calm Calm - N/A   Clear
11:35 PM 7.7 °F - 4.3 °F 86% 30.35 in 0.8 mi Calm Calm - N/A   Mist
11:55 PM 7.7 °F - 4.5 °F 87% 30.36 in 1.8 mi Calm Calm - N/A   Mist